Flag for Nepal Weather past 2 weeks in Pokhara, Nepal

Now
66 °F

Passing clouds.


Feels Like: 66 °F
Forecast: 60 / 80 °F
Wind: No wind

Location: Kathmandu Airport

Current Time: Sep 19, 2014 at 5:53:46 AM

Latest Report: Sep 19, 2014 at 4:35 AM


Visibility: 5 mi

Pressure: 29.95 "Hg

Humidity: 100%

Dew point: 66 °F

Location of PokharaLocation

Historic Weather in Pokhara — Graph

°F

Pokhara temperature yesterday

Maximum temperature yesterday: 86 °F (at 12:35 PM)
Minimum temperature yesterday: 66 °F (at 4:35 AM)
Average temperature yesterday: 75 °F

Past Weeks' High & Low Weather Summary

 TemperatureHumidityPressure
High86 °F (Sep 18, 12:35 PM)100% (Sep 5, 2:35 AM)30.04 "Hg (Sep 5, 2:35 AM)
Low66 °F (Sep 10, 3:35 AM)52% (Sep 18, 12:35 PM)29.77 "Hg (Sep 5, 2:35 PM)
Average73 °F85%29.92 "Hg
* Reported Sep 4 12:35 PM — Sep 19 4:35 AM, Pokhara, Weather by CustomWeather, © 2014

Note: Actual official high and low records may vary slightly from our data, if they occured in-between our weather recording intervals... More about our weather records

Advertising

Pokhara weather history for previous 24 hours

 ConditionsComfort  
Time TempWeatherWind HumidityBarometerVisibility
4:35 AM
Sep 19
66 °FPassing clouds.No wind100%29.95 "Hg5 mi
3:35 AM68 °FPartly cloudy.6 mph94%29.95 "Hg5 mi
2:35 AM68 °FThunderstorms. Mostly cloudy.No wind94%29.98 "Hg4 mi
1:35 AM66 °FThunderstorms. Mostly cloudy.No wind100%30.01 "Hg2 mi
12:35 AM66 °FStrong thunderstorms. Mostly cloudy.6 mph100%30.01 "Hg1 mi
11:35 PM
Sep 18
70 °FRain. Mostly cloudy.3 mph94%30.01 "Hg2 mi
10:35 PM75 °FThunderstorms. Partly cloudy.5 mph78%29.98 "Hg4 mi
9:35 PM75 °FThunderstorms. Partly cloudy.10 mph83%29.98 "Hg4 mi
8:35 PM75 °FThunderstorms. Passing clouds.3 mph83%29.95 "Hg5 mi
7:35 PM77 °FThunderstorms. Partly cloudy.5 mph79%29.92 "Hg5 mi
6:35 PM77 °FScattered clouds.3 mph79%29.86 "HgN/A
5:35 PM79 °FBroken clouds.8 mph79%29.86 "HgN/A
4:35 PM82 °FScattered clouds.5 mph66%29.86 "HgN/A
12:35 PM86 °FPassing clouds.3 mph52%29.89 "HgN/A
11:35 AM84 °FPassing clouds.3 mph58%29.92 "HgN/A
10:35 AM82 °FPassing clouds.3 mph66%29.92 "Hg5 mi
9:35 AM77 °FPassing clouds.No wind74%29.92 "Hg4 mi
8:35 AM75 °FPassing clouds.No wind78%29.92 "Hg4 mi
7:35 AM72 °FPassing clouds.No wind88%29.92 "Hg4 mi
6:35 AM68 °FPassing clouds.No wind94%29.92 "Hg4 mi
5:35 AM66 °FPartly cloudy.No wind100%29.89 "Hg4 mi
Weather by CustomWeather, © 2014

See weather overviewHow to use our weather pages